Location: Boulder
(39.9271°N, 105.3706°W)
Time: 12:24:41
(UTC-06:00)

ISS - Visible Passes

Search period start: 21 March 2019 00:00
Search period end: 31 March 2019 00:00
Orbit: 406 x 411 km, 51.6° (Epoch: 21 March)

Date Brightness Start Highest point End Pass type
(mag) Time Alt. Az. Time Alt. Az. Time Alt. Az.
21 Mar -2.8 21:09:58 10° WSW 21:12:50 46° NW 21:12:50 46° NW visible
22 Mar -3.9 20:18:47 10° SW 20:22:04 90° NW 20:24:35 16° NE visible
22 Mar -0.5 21:56:42 10° WNW 21:57:22 13° NW 21:57:22 13° NW visible
23 Mar -1.7 21:04:57 10° W 21:07:43 24° NNW 21:08:55 20° N visible
24 Mar -2.4 20:13:24 10° W 20:16:29 37° NNW 20:19:35 10° NE visible
24 Mar -0.6 21:52:12 10° NW 21:53:02 12° NNW 21:53:02 12° NNW visible
25 Mar -1.1 21:00:17 10° WNW 21:02:22 16° NNW 21:04:15 11° NNE visible
26 Mar -1.4 20:08:26 10° WNW 20:11:00 21° NNW 20:13:34 10° NNE visible
26 Mar -0.6 21:47:36 10° NNW 21:48:05 11° N 21:48:05 11° N visible
27 Mar -0.9 20:55:46 10° NNW 20:57:04 12° N 20:58:23 10° NNE visible
28 Mar -1.1 20:03:47 10° NW 20:05:36 14° NNW 20:07:27 10° NNE visible
28 Mar -0.7 21:42:08 10° NNW 21:42:45 11° N 21:42:45 11° N visible
29 Mar -1.0 20:50:54 10° NNW 20:51:47 11° N 20:52:41 10° NNE visible
30 Mar -1.0 19:59:10 10° NNW 20:00:17 11° N 20:01:23 10° NNE visible
30 Mar -1.0 21:36:02 10° NNW 21:37:14 14° N 21:37:14 14° N visible
